LOT3YG EDDH-EPWA

Flight info

Callsign LOT3YG
Flight time 1h 13m
Altitude 23000
Route RAMAR6G/33 RAMAR Z998 RATMO/N0456F370 DCT SUBIX/N0457F390 L980 ADVAB P150 BIMPA
Aircraft B738/M-SDE2E3FGHIRWXY/LB1

Departure

Time 2026-04-30 19:42
Airport Hamburg Helmut Schmidt Airport (EDDH)

Arrival

Time 2026-04-30 20:55
Airport Warsaw Chopin Airport (EPWA)
Time Latitude Longitude Altitude Speed Heading
2026-04-30 19:03 53.62679 10.00336 50 ft 0 kts 62°
2026-04-30 19:10 53.62679 10.00335 50 ft 0 kts 62°
2026-04-30 19:30 53.62678 10.00334 50 ft 2 kts 62°
2026-04-30 19:31 53.62662 10.00284 46 ft 2 kts 62°
2026-04-30 19:31 53.62654 10.00259 47 ft 2 kts 89°
2026-04-30 19:31 53.62668 10.00238 44 ft 0 kts 151°
2026-04-30 19:34 53.62655 10.00250 47 ft 3 kts 151°
2026-04-30 19:34 53.62634 10.00269 49 ft 4 kts 151°
2026-04-30 19:34 53.62577 10.00233 50 ft 7 kts 244°
2026-04-30 19:35 53.62567 10.00199 50 ft 0 kts 245°
2026-04-30 19:38 53.62567 10.00198 50 ft 1 kts 245°
2026-04-30 19:38 53.62556 10.00158 50 ft 6 kts 245°
2026-04-30 19:38 53.62538 10.00091 51 ft 6 kts 245°
2026-04-30 19:39 53.62540 10.00025 49 ft 6 kts 308°
2026-04-30 19:39 53.62566 9.99999 51 ft 0 kts 332°
2026-04-30 19:41 53.62572 9.99994 51 ft 5 kts 332°
2026-04-30 19:41 53.62773 9.99820 52 ft 72 kts 333°
2026-04-30 19:41 53.63455 9.99233 52 ft 144 kts 333°
2026-04-30 19:42 53.64490 9.98350 443 ft 168 kts 335°
2026-04-30 19:42 53.65496 9.97500 1369 ft 167 kts 335°
2026-04-30 19:42 53.66555 9.96603 2153 ft 171 kts 334°
2026-04-30 19:42 53.67685 9.95636 2657 ft 198 kts 334°
2026-04-30 19:43 53.69022 9.94662 3073 ft 216 kts 351°
2026-04-30 19:43 53.70528 9.94611 3718 ft 219 kts
2026-04-30 19:43 53.72071 9.94673 4415 ft 223 kts
2026-04-30 19:44 53.74466 9.97756 5607 ft 245 kts 62°
2026-04-30 19:44 53.75261 10.00406 6244 ft 257 kts 66°
2026-04-30 19:44 53.76027 10.03153 7141 ft 259 kts 66°
2026-04-30 19:44 53.76798 10.05928 8005 ft 262 kts 66°
2026-04-30 19:45 53.77586 10.08738 8836 ft 267 kts 65°
2026-04-30 19:45 53.78393 10.11592 9685 ft 270 kts 65°
2026-04-30 19:45 53.79161 10.14478 10252 ft 275 kts 75°
2026-04-30 19:45 53.79212 10.17738 10810 ft 288 kts 96°
2026-04-30 19:46 53.78880 10.21253 10989 ft 315 kts 99°
2026-04-30 19:46 53.78467 10.25027 11171 ft 338 kts 99°
2026-04-30 19:46 53.78022 10.29035 11588 ft 351 kts 99°
2026-04-30 19:46 53.77573 10.33117 12297 ft 355 kts 99°
2026-04-30 19:47 53.77133 10.37194 13083 ft 357 kts 98°
2026-04-30 19:47 53.76835 10.39995 13612 ft 359 kts 98°
2026-04-30 19:47 53.76249 10.45541 14591 ft 364 kts 98°
2026-04-30 19:47 53.75804 10.49785 15281 ft 369 kts 98°
2026-04-30 19:48 53.75504 10.52642 15756 ft 372 kts 98°
2026-04-30 19:48 53.75048 10.56977 16472 ft 376 kts 98°
2026-04-30 19:48 53.74416 10.62785 17328 ft 384 kts 101°
2026-04-30 19:48 53.73877 10.65745 17654 ft 393 kts 108°
2026-04-30 19:49 53.72659 10.69939 18242 ft 402 kts 115°
2026-04-30 19:49 53.69945 10.78248 19440 ft 410 kts 115°
2026-04-30 19:49 53.68556 10.82484 20028 ft 413 kts 115°
2026-04-30 19:50 53.67183 10.86683 21070 ft 401 kts 115°
2026-04-30 19:50 53.65858 10.90744 22174 ft 389 kts 115°
2026-04-30 19:50 53.64590 10.94641 23233 ft 378 kts 114°
2026-04-30 19:50 53.63350 10.98457 24325 ft 365 kts 114°
2026-04-30 19:51 53.62154 11.02138 25303 ft 351 kts 114°
2026-04-30 19:51 53.61003 11.05683 26248 ft 339 kts 114°
2026-04-30 19:51 53.59877 11.09153 26892 ft 337 kts 114°
2026-04-30 19:51 53.58748 11.12643 27322 ft 342 kts 114°
2026-04-30 19:52 53.57600 11.16188 27729 ft 346 kts 114°
2026-04-30 19:52 53.56455 11.19715 28174 ft 349 kts 114°
2026-04-30 19:52 53.55287 11.23300 28627 ft 351 kts 114°
2026-04-30 19:52 53.54105 11.26919 29054 ft 354 kts 114°
2026-04-30 19:53 53.52912 11.30567 29488 ft 357 kts 114°
2026-04-30 19:53 53.51705 11.34248 29946 ft 359 kts 114°
2026-04-30 19:53 53.50493 11.37941 30383 ft 362 kts 114°
2026-04-30 19:53 53.49272 11.41656 30748 ft 364 kts 114°
2026-04-30 19:54 53.48053 11.45354 31109 ft 366 kts 115°
2026-04-30 19:54 53.46801 11.49150 31503 ft 368 kts 115°
2026-04-30 19:54 53.45573 11.52864 31857 ft 369 kts 115°
2026-04-30 19:54 53.44322 11.56645 32204 ft 371 kts 115°
2026-04-30 19:55 53.43062 11.60447 32559 ft 373 kts 115°
2026-04-30 19:55 53.41792 11.64275 32897 ft 375 kts 115°
2026-04-30 19:55 53.40520 11.68099 33236 ft 377 kts 115°
2026-04-30 19:55 53.39238 11.71951 33578 ft 379 kts 115°
2026-04-30 19:56 53.37946 11.75826 33905 ft 381 kts 116°
2026-04-30 19:56 53.36647 11.79715 34220 ft 383 kts 116°
2026-04-30 19:56 53.35340 11.83622 34529 ft 385 kts 116°
2026-04-30 19:56 53.34044 11.87491 34795 ft 386 kts 116°
2026-04-30 19:57 53.32725 11.91421 35063 ft 388 kts 116°
2026-04-30 19:57 53.31398 11.95367 35326 ft 390 kts 116°
2026-04-30 19:57 53.30067 11.99322 35595 ft 391 kts 116°
2026-04-30 19:57 53.28722 12.03310 35855 ft 393 kts 115°
2026-04-30 19:58 53.27375 12.07299 36101 ft 395 kts 115°
2026-04-30 19:58 53.26016 12.11316 36339 ft 396 kts 115°
2026-04-30 19:58 53.24673 12.15279 36574 ft 398 kts 115°
2026-04-30 19:58 53.23287 12.19363 36812 ft 400 kts 115°
2026-04-30 19:59 53.21928 12.23363 37046 ft 401 kts 115°
2026-04-30 19:59 53.20542 12.27431 37277 ft 403 kts 115°
2026-04-30 19:59 53.17758 12.35587 37728 ft 406 kts 115°
2026-04-30 20:00 53.16358 12.39677 37945 ft 407 kts 115°
2026-04-30 20:00 53.14947 12.43796 38148 ft 409 kts 115°
2026-04-30 20:00 53.13551 12.47861 38354 ft 410 kts 115°
2026-04-30 20:00 53.12128 12.51999 38558 ft 412 kts 115°
2026-04-30 20:01 53.09267 12.60299 38948 ft 414 kts 115°
2026-04-30 20:01 53.07824 12.64473 39112 ft 416 kts 115°
2026-04-30 20:01 53.06376 12.68655 39264 ft 417 kts 115°
2026-04-30 20:02 53.03478 12.77006 39416 ft 423 kts 115°
2026-04-30 20:02 53.02001 12.81256 39428 ft 427 kts 115°
2026-04-30 20:03 52.97449 12.94298 39425 ft 441 kts 115°
2026-04-30 20:03 52.94331 13.03189 39423 ft 450 kts 115°
2026-04-30 20:04 52.91173 13.12158 39419 ft 456 kts 115°
2026-04-30 20:05 52.86346 13.25800 39403 ft 457 kts 115°
2026-04-30 20:05 52.81582 13.39180 39408 ft 444 kts 115°
2026-04-30 20:06 52.78440 13.47987 39414 ft 445 kts 115°
2026-04-30 20:06 52.75298 13.56762 39410 ft 445 kts 115°
2026-04-30 20:07 52.72132 13.65570 39408 ft 446 kts 115°
2026-04-30 20:08 52.67375 13.78741 39407 ft 447 kts 115°
2026-04-30 20:08 52.64183 13.87539 39408 ft 447 kts 115°
2026-04-30 20:09 52.60981 13.96337 39408 ft 448 kts 115°
2026-04-30 20:09 52.56178 14.09472 39408 ft 448 kts 115°
2026-04-30 20:10 52.51344 14.22628 39409 ft 448 kts 115°
2026-04-30 20:11 52.46492 14.35762 39408 ft 448 kts 115°
2026-04-30 20:11 52.43905 14.44799 39410 ft 432 kts 97°
2026-04-30 20:12 52.43351 14.54384 39413 ft 418 kts 83°
2026-04-30 20:12 52.43421 14.59167 39410 ft 418 kts 83°
2026-04-30 20:13 52.43560 14.68689 39409 ft 418 kts 83°
2026-04-30 20:13 52.43667 14.78184 39412 ft 417 kts 83°
2026-04-30 20:14 52.43751 14.87718 39413 ft 418 kts 83°
2026-04-30 20:14 52.43821 14.97236 39414 ft 418 kts 83°
2026-04-30 20:15 52.43882 15.06769 39412 ft 418 kts 83°
2026-04-30 20:15 52.43936 15.16239 39413 ft 418 kts 83°
2026-04-30 20:16 52.43982 15.25774 39417 ft 418 kts 83°
2026-04-30 20:16 52.44021 15.35312 39420 ft 418 kts 84°
2026-04-30 20:17 52.44053 15.44858 39415 ft 419 kts 84°
2026-04-30 20:17 52.44077 15.54364 39412 ft 419 kts 84°
2026-04-30 20:18 52.44092 15.63924 39408 ft 419 kts 84°
2026-04-30 20:18 52.44101 15.73464 39409 ft 419 kts 84°
2026-04-30 20:19 52.44101 15.83037 39413 ft 419 kts 84°
2026-04-30 20:19 52.44094 15.92529 39405 ft 419 kts 84°
2026-04-30 20:20 52.44079 16.02089 39405 ft 418 kts 84°
2026-04-30 20:20 52.44056 16.11626 39406 ft 418 kts 84°
2026-04-30 20:21 52.44026 16.21164 39407 ft 418 kts 84°
2026-04-30 20:21 52.43989 16.30644 39401 ft 417 kts 84°
2026-04-30 20:22 52.43943 16.40148 39413 ft 417 kts 84°
2026-04-30 20:22 52.43891 16.49593 39402 ft 416 kts 84°
2026-04-30 20:23 52.43830 16.59087 39399 ft 416 kts 84°
2026-04-30 20:23 52.43612 16.68571 39397 ft 421 kts 92°
2026-04-30 20:24 52.42593 16.78060 39406 ft 423 kts 94°
2026-04-30 20:24 52.41500 16.87536 39403 ft 422 kts 94°
2026-04-30 20:25 52.39901 17.01751 39399 ft 422 kts 93°
2026-04-30 20:26 52.38332 17.15875 39403 ft 422 kts 93°
2026-04-30 20:26 52.36742 17.30066 39393 ft 423 kts 94°
2026-04-30 20:27 52.34592 17.48996 39393 ft 424 kts 94°
2026-04-30 20:28 52.32408 17.67933 39390 ft 425 kts 94°
2026-04-30 20:30 52.29621 17.91699 39388 ft 426 kts 94°
2026-04-30 20:31 52.26203 18.20265 39382 ft 428 kts 94°
2026-04-30 20:32 52.23297 18.44090 39017 ft 431 kts 94°
2026-04-30 20:33 52.22706 18.48869 38732 ft 427 kts 94°
2026-04-30 20:33 52.21534 18.58290 38178 ft 423 kts 94°
2026-04-30 20:33 52.20948 18.62986 37905 ft 422 kts 94°
2026-04-30 20:34 52.19974 18.70781 37465 ft 421 kts 94°
2026-04-30 20:34 52.18798 18.80120 36950 ft 420 kts 94°
2026-04-30 20:35 52.18214 18.84736 36701 ft 420 kts 93°
2026-04-30 20:35 52.17622 18.89395 36448 ft 419 kts 93°
2026-04-30 20:35 52.16436 18.98676 35911 ft 417 kts 93°
2026-04-30 20:36 52.15842 19.03305 35226 ft 416 kts 92°
2026-04-30 20:36 52.15247 19.07921 34552 ft 415 kts 92°
2026-04-30 20:36 52.14066 19.17054 33037 ft 413 kts 92°
2026-04-30 20:37 52.13470 19.21633 32269 ft 412 kts 92°
2026-04-30 20:37 52.12875 19.26198 31485 ft 412 kts 92°
2026-04-30 20:37 52.12280 19.30755 30671 ft 412 kts 92°
2026-04-30 20:37 52.11681 19.35329 29730 ft 413 kts 92°
2026-04-30 20:38 52.11080 19.39896 28793 ft 412 kts 93°
2026-04-30 20:38 52.10476 19.44467 27835 ft 413 kts 93°
2026-04-30 20:38 52.09872 19.49031 26849 ft 414 kts 93°
2026-04-30 20:39 52.08656 19.58165 25113 ft 411 kts 94°
2026-04-30 20:39 52.08047 19.62687 24388 ft 408 kts 94°
2026-04-30 20:39 52.07437 19.67225 23565 ft 410 kts 94°
2026-04-30 20:40 52.06226 19.76203 22015 ft 402 kts 95°
2026-04-30 20:40 52.05627 19.80614 21269 ft 396 kts 95°
2026-04-30 20:40 52.05039 19.84904 20562 ft 382 kts 95°
2026-04-30 20:41 52.03926 19.92998 19232 ft 358 kts 96°
2026-04-30 20:41 52.03392 19.96897 18588 ft 349 kts 96°
2026-04-30 20:41 52.02871 20.00686 18081 ft 336 kts 96°
2026-04-30 20:41 52.02370 20.04317 17645 ft 323 kts 96°
2026-04-30 20:42 52.01886 20.07818 17214 ft 313 kts 95°
2026-04-30 20:42 52.01417 20.11208 16793 ft 303 kts 95°
2026-04-30 20:42 52.00513 20.17738 15972 ft 289 kts 95°
2026-04-30 20:43 52.00076 20.20883 15591 ft 282 kts 95°
2026-04-30 20:43 51.99653 20.23923 15217 ft 276 kts 95°
2026-04-30 20:43 51.99233 20.26940 14849 ft 271 kts 95°
2026-04-30 20:44 51.98404 20.32876 14017 ft 267 kts 95°
2026-04-30 20:44 51.97991 20.35832 13480 ft 268 kts 96°
2026-04-30 20:44 51.97169 20.41684 12498 ft 267 kts 96°
2026-04-30 20:45 51.96355 20.47439 11556 ft 267 kts 96°
2026-04-30 20:45 51.95939 20.50371 11080 ft 266 kts 97°
2026-04-30 20:45 51.95527 20.53269 10616 ft 266 kts 97°
2026-04-30 20:46 51.94293 20.61885 9601 ft 250 kts 97°
2026-04-30 20:46 51.93902 20.64607 9349 ft 247 kts 97°
2026-04-30 20:47 51.93129 20.69992 8913 ft 244 kts 97°
2026-04-30 20:47 51.92748 20.72641 8673 ft 244 kts 97°
2026-04-30 20:48 51.91983 20.77977 8226 ft 242 kts 95°
2026-04-30 20:48 51.92105 20.80595 7957 ft 231 kts 67°
2026-04-30 20:48 51.92609 20.83031 7672 ft 227 kts 66°
2026-04-30 20:48 51.93115 20.85468 7232 ft 229 kts 67°
2026-04-30 20:49 51.93626 20.87917 6863 ft 229 kts 66°
2026-04-30 20:49 51.94138 20.90371 6498 ft 227 kts 67°
2026-04-30 20:49 51.94641 20.92771 6077 ft 229 kts 67°
2026-04-30 20:50 51.95686 20.97679 5204 ft 231 kts 66°
2026-04-30 20:50 51.96503 20.99870 4751 ft 226 kts 46°
2026-04-30 20:50 51.97505 21.01840 4376 ft 225 kts 49°
2026-04-30 20:50 51.98468 21.03858 4096 ft 226 kts 50°
2026-04-30 20:51 51.99405 21.05870 3863 ft 224 kts 50°
2026-04-30 20:51 52.01793 21.08246 3389 ft 201 kts 351°
2026-04-30 20:51 52.03137 21.07779 3142 ft 196 kts 345°
2026-04-30 20:52 52.04418 21.07072 2890 ft 192 kts 339°
2026-04-30 20:52 52.05645 21.06242 2624 ft 189 kts 335°
2026-04-30 20:52 52.07924 21.04301 2119 ft 180 kts 332°
2026-04-30 20:53 52.08996 21.03358 1881 ft 170 kts 332°
2026-04-30 20:53 52.10008 21.02469 1655 ft 160 kts 332°
2026-04-30 20:53 52.10948 21.01644 1479 ft 145 kts 332°
2026-04-30 20:54 52.12682 21.00123 1033 ft 143 kts 331°
2026-04-30 20:54 52.13568 20.99346 832 ft 145 kts 331°
2026-04-30 20:54 52.14456 20.98567 633 ft 145 kts 330°
2026-04-30 20:55 52.16203 20.97036 344 ft 126 kts 332°
2026-04-30 20:55 52.16785 20.96526 345 ft 64 kts 332°
2026-04-30 20:55 52.17120 20.96260 337 ft 42 kts 347°
2026-04-30 20:56 52.17403 20.96316 351 ft 6 kts 66°
2026-04-30 20:56 52.17405 20.96325 350 ft 0 kts 66°
2026-04-30 20:56 52.17418 20.96366 354 ft 6 kts 62°
2026-04-30 20:57 52.17441 20.96435 353 ft 7 kts 62°
2026-04-30 20:57 52.17462 20.96507 354 ft 8 kts 72°
2026-04-30 20:57 52.17440 20.96593 359 ft 11 kts 150°
2026-04-30 20:58 52.17288 20.96721 349 ft 12 kts 153°
2026-04-30 20:58 52.17212 20.96788 349 ft 12 kts 150°
2026-04-30 20:58 52.17140 20.96853 353 ft 12 kts 151°
2026-04-30 20:58 52.17069 20.96916 350 ft 12 kts 152°
2026-04-30 20:59 52.16931 20.97037 353 ft 11 kts 153°
2026-04-30 20:59 52.16865 20.97093 349 ft 11 kts 153°
2026-04-30 21:00 52.16839 20.97231 352 ft 5 kts 76°
2026-04-30 21:00 52.16845 20.97272 349 ft 0 kts 76°